Flag for Estonia Weather past 2 weeks in Tallinn, Estonia

Now
34 °F

Clear.


Feels Like: 34 °F
Forecast: 47 / 56 °F
Wind: No wind

Location: Tallinn

Current Time: Oct 2, 2014 at 3:35:33 AM

Latest Report: Oct 2, 2014 at 2:50 AM


Visibility: 10 mi

Pressure: 30.48 "Hg

Humidity: 100%

Dew point: 34 °F

Location of TallinnLocation

Historic Weather in Tallinn — Graph

°F

Tallinn temperature yesterday

Maximum temperature yesterday: 52 °F (at 10:50 AM)
Minimum temperature yesterday: 34 °F (at 6:20 AM)
Average temperature yesterday: 44 °F

Past Weeks' High & Low Weather Summary

 TemperatureHumidityPressure
High68 °F (Sep 19, 2:20 PM)100% (Sep 17, 2:50 AM)30.51 "Hg (Sep 17, 2:50 AM)
Low34 °F (Oct 1, 6:20 AM)46% (Sep 17, 2:20 PM)29.50 "Hg (Sep 27, 1:20 AM)
Average51 °F82%29.94 "Hg
* Reported Sep 17 2:20 AM — Oct 2 2:20 AM, Tallinn, Weather by CustomWeather, © 2014

Note: Actual official high and low records may vary slightly from our data, if they occured in-between our weather recording intervals... More about our weather records

Advertising

Tallinn weather history for previous 24 hours

 ConditionsComfort  
Time TempWeatherWind HumidityBarometerVisibility
2:20 AM
Oct 2
36 °FClear.2 mph93%30.48 "Hg10 mi
1:50 AM36 °FClear.3 mph93%30.48 "Hg10 mi
1:20 AM36 °FClear.2 mph93%30.48 "Hg10 mi
12:50 AM36 °FClear.2 mph100%30.48 "Hg10 mi
12:20 AM36 °FClear.3 mph100%30.48 "Hg10 mi
11:50 PM
Oct 1
36 °FClear.3 mph93%30.48 "Hg10 mi
11:20 PM37 °FClear.3 mph93%30.48 "Hg10 mi
10:50 PM39 °FClear.3 mph87%30.48 "Hg10 mi
10:20 PM39 °FClear.3 mph87%30.48 "Hg10 mi
9:50 PM39 °FClear.3 mph93%30.48 "Hg10 mi
9:20 PM41 °FClear.5 mph87%30.48 "Hg10 mi
8:50 PM41 °FClear.3 mph87%30.48 "Hg10 mi
8:20 PM41 °FClear.3 mph87%30.48 "Hg10 mi
7:50 PM43 °FSunny.5 mph87%30.48 "Hg10 mi
7:20 PM45 °FSunny.5 mph81%30.48 "Hg10 mi
6:50 PM46 °FSunny.6 mph76%30.48 "Hg10 mi
6:20 PM48 °FSunny.3 mph71%30.48 "Hg10 mi
5:50 PM50 °FSunny.5 mph67%30.48 "Hg10 mi
5:20 PM52 °FSunny.5 mph62%30.48 "Hg10 mi
4:50 PM52 °FSunny.1 mph62%30.48 "Hg10 mi
4:20 PM52 °FSunny.3 mph58%30.48 "Hg10 mi
3:50 PM50 °FPassing clouds.3 mph62%30.48 "HgN/A
3:20 PM52 °FPassing clouds.3 mph58%30.51 "HgN/A
2:50 PM52 °FPassing clouds.6 mph58%30.51 "HgN/A
2:20 PM52 °FScattered clouds.5 mph62%30.51 "HgN/A
1:50 PM52 °FScattered clouds.6 mph58%30.51 "HgN/A
1:20 PM52 °FPassing clouds.5 mph62%30.51 "HgN/A
12:50 PM50 °FScattered clouds.5 mph67%30.51 "HgN/A
12:20 PM50 °FScattered clouds.5 mph71%30.51 "HgN/A
11:50 AM50 °FPartly sunny.5 mph67%30.51 "HgN/A
11:20 AM50 °FBroken clouds.2 mph67%30.51 "HgN/A
10:50 AM52 °FPartly sunny.3 mph72%30.51 "HgN/A
10:20 AM50 °FPassing clouds.No wind76%30.48 "HgN/A
9:50 AM45 °FPassing clouds.No wind93%30.48 "HgN/A
9:20 AM41 °FLight fog.1 mph93%30.48 "HgN/A
8:50 AM36 °FLight fog.No wind100%30.48 "HgN/A
8:20 AM34 °FSleet. Fog.No wind100%30.45 "HgN/A
7:50 AM34 °FSleet. Fog.No wind100%30.45 "Hg6 mi
7:20 AM34 °FLight fog.No wind100%30.45 "Hg6 mi
6:50 AM36 °FFog.No wind100%30.45 "Hg6 mi
6:20 AM34 °FPassing clouds.No wind100%30.45 "Hg6 mi
5:50 AM37 °FClear.No wind100%30.45 "Hg6 mi
5:20 AM37 °FClear.No wind100%30.42 "Hg6 mi
4:50 AM37 °FClear.1 mph93%30.42 "Hg10 mi
4:20 AM37 °FClear.No wind100%30.42 "Hg10 mi
3:50 AM39 °FPassing clouds.No wind93%30.42 "HgN/A
3:20 AM39 °FPassing clouds.3 mph93%30.39 "HgN/A
Weather by CustomWeather, © 2014

See weather overviewHow to use our weather pages